ENT4030 DTNH-EPWA

Flight info

Callsign ENT4030
Flight time N/A
Altitude 37000
Route VAXAL1C VAXAL UM734 SIRVI UM725 SUSIP DCT PININ DCT VAPUP/N0441F390 DCT VEBAL/N0428F350 DCT LITKU DCT ORTEB/N0441F400 DCT KONZI DCT LOGDA
Aircraft B738/M-SDGHIJ1RWXY/LB1

Departure

Time 2026-05-07 14:29
Airport Enfidha - Hammamet International Airport (DTNH)

Arrival

Time N/A
Airport Warsaw Chopin Airport (EPWA)
Time Latitude Longitude Altitude Speed Heading
2026-05-07 14:21 36.08143 10.44062 16 ft 2 kts 272°
2026-05-07 14:21 36.08146 10.44080 16 ft 2 kts 237°
2026-05-07 14:22 36.08150 10.44087 16 ft 1 kts 220°
2026-05-07 14:22 36.08154 10.44091 16 ft 0 kts 225°
2026-05-07 14:23 36.08146 10.44081 16 ft 4 kts 227°
2026-05-07 14:24 36.08113 10.44038 16 ft 6 kts 224°
2026-05-07 14:24 36.08072 10.43989 17 ft 9 kts 224°
2026-05-07 14:24 36.08008 10.43933 17 ft 14 kts 191°
2026-05-07 14:24 36.07909 10.43933 17 ft 14 kts 178°
2026-05-07 14:25 36.07812 10.43933 16 ft 14 kts 179°
2026-05-07 14:25 36.07744 10.43866 16 ft 15 kts 269°
2026-05-07 14:25 36.07746 10.43717 17 ft 20 kts 270°
2026-05-07 14:25 36.07746 10.43539 16 ft 20 kts 271°
2026-05-07 14:26 36.07749 10.43348 17 ft 24 kts 271°
2026-05-07 14:26 36.07748 10.43137 17 ft 24 kts 269°
2026-05-07 14:26 36.07750 10.42925 17 ft 24 kts 271°
2026-05-07 14:26 36.07751 10.42726 18 ft 22 kts 270°
2026-05-07 14:27 36.07751 10.42528 19 ft 25 kts 270°
2026-05-07 14:27 36.07752 10.42321 20 ft 23 kts 269°
2026-05-07 14:27 36.07753 10.42120 20 ft 23 kts 269°
2026-05-07 14:27 36.07636 10.42045 19 ft 21 kts 176°
2026-05-07 14:28 36.07581 10.42135 20 ft 14 kts 88°
2026-05-07 14:28 36.07583 10.42347 20 ft 53 kts 91°
2026-05-07 14:28 36.07577 10.43137 17 ft 130 kts 88°
2026-05-07 14:28 36.07567 10.44501 242 ft 176 kts 91°
2026-05-07 14:29 36.07529 10.45956 1260 ft 169 kts 89°
2026-05-07 14:29 36.07545 10.47466 1707 ft 187 kts 81°
2026-05-07 14:29 36.07955 10.48968 2502 ft 183 kts 49°
2026-05-07 14:29 36.08993 10.49727 3208 ft 185 kts
2026-05-07 14:30 36.10286 10.49358 3711 ft 200 kts 329°
2026-05-07 14:30 36.11385 10.48260 4287 ft 212 kts 316°
2026-05-07 14:30 36.12531 10.47026 4892 ft 224 kts 324°
2026-05-07 14:30 36.13952 10.46079 5385 ft 244 kts 339°
2026-05-07 14:31 36.15689 10.45806 5942 ft 263 kts
2026-05-07 14:31 36.17533 10.46294 6526 ft 280 kts 12°
2026-05-07 14:31 36.19423 10.46976 7237 ft 289 kts 13°
2026-05-07 14:31 36.21370 10.47666 7987 ft 296 kts 12°
2026-05-07 14:32 36.23365 10.48333 8756 ft 301 kts 10°
2026-05-07 14:32 36.25408 10.48991 9508 ft 307 kts
2026-05-07 14:32 36.27479 10.49643 10190 ft 315 kts
2026-05-07 14:32 36.29631 10.50316 10751 ft 327 kts
2026-05-07 14:33 36.31900 10.51015 11216 ft 342 kts
2026-05-07 14:33 36.34271 10.51740 11660 ft 358 kts
2026-05-07 14:33 36.36726 10.52500 12149 ft 371 kts
2026-05-07 14:33 36.39290 10.53298 12582 ft 386 kts
2026-05-07 14:34 36.41903 10.54114 13208 ft 393 kts
2026-05-07 14:34 36.44559 10.54942 13917 ft 397 kts
2026-05-07 14:34 36.47265 10.55783 14656 ft 400 kts
2026-05-07 14:34 36.49964 10.56620 15331 ft 405 kts
2026-05-07 14:35 36.52741 10.57479 15863 ft 414 kts
2026-05-07 14:35 36.55521 10.58343 16625 ft 414 kts
2026-05-07 14:35 36.58369 10.59226 17056 ft 425 kts
2026-05-07 14:35 36.61232 10.60118 17790 ft 425 kts
2026-05-07 14:36 36.64076 10.61007 18435 ft 428 kts
2026-05-07 14:36 36.66998 10.61921 19010 ft 433 kts
2026-05-07 14:36 36.69938 10.62838 19647 ft 436 kts
2026-05-07 14:36 36.72859 10.63750 20197 ft 441 kts
2026-05-07 14:37 36.75878 10.64691 20768 ft 445 kts
2026-05-07 14:37 36.81879 10.66570 22030 ft 447 kts
2026-05-07 14:37 36.84875 10.67510 22594 ft 449 kts
2026-05-07 14:38 36.87943 10.68469 23100 ft 453 kts
2026-05-07 14:38 36.90993 10.69424 23491 ft 459 kts
2026-05-07 14:38 36.94112 10.70403 24035 ft 461 kts
2026-05-07 14:38 36.97235 10.71384 24453 ft 466 kts
2026-05-07 14:39 37.00389 10.72374 24798 ft 472 kts
2026-05-07 14:39 37.03581 10.73381 25291 ft 475 kts
2026-05-07 14:39 37.06804 10.74396 25634 ft 481 kts
2026-05-07 14:39 37.10040 10.75419 26165 ft 481 kts
2026-05-07 14:40 37.13322 10.76455 26396 ft 489 kts
2026-05-07 14:40 37.16610 10.77496 26883 ft 491 kts
2026-05-07 14:40 37.19942 10.78549 27125 ft 497 kts
2026-05-07 14:40 37.23296 10.79610 27475 ft 501 kts
2026-05-07 14:41 37.26678 10.80686 27940 ft 502 kts
2026-05-07 14:41 37.30081 10.81765 28199 ft 508 kts
2026-05-07 14:41 37.33505 10.82854 28572 ft 511 kts
2026-05-07 14:41 37.36970 10.83962 29145 ft 508 kts
2026-05-07 14:42 37.40365 10.85158 29690 ft 510 kts 11°
2026-05-07 14:42 37.43652 10.86750 30343 ft 512 kts 18°
2026-05-07 14:42 37.46866 10.88783 30831 ft 516 kts 24°
2026-05-07 14:42 37.49890 10.91164 31282 ft 519 kts 31°
2026-05-07 14:43 37.52766 10.93928 31775 ft 520 kts 37°
2026-05-07 14:43 37.55450 10.96924 32327 ft 519 kts 39°
2026-05-07 14:43 37.58089 11.00080 32709 ft 520 kts 41°
2026-05-07 14:43 37.60708 11.03258 32994 ft 522 kts 41°
2026-05-07 14:44 37.63335 11.06412 33246 ft 525 kts 40°
2026-05-07 14:44 37.66064 11.09618 33491 ft 528 kts 39°
2026-05-07 14:44 37.68790 11.12747 33925 ft 528 kts 39°
2026-05-07 14:44 37.71545 11.15855 34462 ft 524 kts 38°
2026-05-07 14:45 37.74249 11.18867 35044 ft 520 kts 37°
2026-05-07 14:45 37.76925 11.21845 35606 ft 515 kts 36°
2026-05-07 14:45 37.79619 11.24812 36168 ft 511 kts 36°
2026-05-07 14:45 37.82299 11.27744 36451 ft 513 kts 35°
2026-05-07 14:46 37.85027 11.30717 36609 ft 517 kts 36°
2026-05-07 14:46 37.87737 11.33666 36737 ft 521 kts 34°
2026-05-07 14:46 37.90540 11.36615 36893 ft 522 kts 33°
2026-05-07 14:46 37.93413 11.39330 36903 ft 522 kts 28°
2026-05-07 14:47 37.99591 11.44170 36893 ft 524 kts 22°
2026-05-07 14:47 38.06018 11.48610 36893 ft 525 kts 19°
2026-05-07 14:48 38.12479 11.52905 36893 ft 527 kts 19°
2026-05-07 14:48 38.18963 11.57255 36893 ft 526 kts 19°
2026-05-07 14:49 38.25416 11.61646 36892 ft 527 kts 20°
2026-05-07 14:49 38.31887 11.66087 36884 ft 531 kts 21°
2026-05-07 14:50 38.38353 11.70555 36876 ft 529 kts 21°
2026-05-07 14:50 38.44796 11.75026 36887 ft 529 kts 21°
2026-05-07 14:51 38.51232 11.79498 36876 ft 527 kts 21°
2026-05-07 14:51 38.57711 11.83996 36886 ft 530 kts 20°
2026-05-07 14:52 38.64154 11.88484 36879 ft 530 kts 21°
2026-05-07 14:52 38.70624 11.92997 36879 ft 536 kts 21°
2026-05-07 14:53 38.77152 11.97565 36890 ft 534 kts 21°
2026-05-07 14:53 38.83643 12.02121 36883 ft 533 kts 20°
2026-05-07 14:54 38.90147 12.06680 36882 ft 537 kts 21°
2026-05-07 14:54 38.96686 12.11279 36889 ft 538 kts 20°
2026-05-07 14:55 39.03209 12.15884 36873 ft 533 kts 20°
2026-05-07 14:55 39.09685 12.20470 36881 ft 533 kts 20°
2026-05-07 14:56 39.16184 12.25074 36885 ft 535 kts 20°
2026-05-07 14:56 39.22713 12.29699 36884 ft 537 kts 20°
2026-05-07 14:57 39.29189 12.34310 36888 ft 530 kts 20°
2026-05-07 14:57 39.35650 12.38920 36902 ft 531 kts 20°
2026-05-07 14:58 39.42109 12.43527 37031 ft 534 kts 19°
2026-05-07 14:58 39.45348 12.45841 37450 ft 532 kts 19°
2026-05-07 14:58 39.48605 12.48173 37865 ft 530 kts 19°
2026-05-07 14:59 39.54966 12.52746 37891 ft 516 kts 19°
2026-05-07 14:59 39.58045 12.54987 37906 ft 504 kts 19°
2026-05-07 14:59 39.61084 12.57223 37895 ft 498 kts 17°
2026-05-07 15:00 39.67157 12.61607 37906 ft 503 kts 17°
2026-05-07 15:00 39.73291 12.65980 37917 ft 507 kts 18°
2026-05-07 15:01 39.79503 12.70421 37891 ft 512 kts 18°
2026-05-07 15:01 39.85681 12.74889 37911 ft 512 kts 18°
2026-05-07 15:02 39.91858 12.79385 37912 ft 507 kts 18°
2026-05-07 15:02 39.98003 12.83862 37921 ft 509 kts 17°
2026-05-07 15:03 40.04218 12.88386 37927 ft 509 kts 17°
2026-05-07 15:03 40.10350 12.92871 37932 ft 506 kts 18°
2026-05-07 15:04 40.16477 12.97362 37927 ft 507 kts 18°
2026-05-07 15:04 40.22654 13.01891 37934 ft 510 kts 17°
2026-05-07 15:05 40.28732 13.06374 37934 ft 500 kts 17°
2026-05-07 15:05 40.34801 13.10838 37927 ft 505 kts 17°
2026-05-07 15:06 40.40911 13.15339 37932 ft 500 kts 17°
2026-05-07 15:06 40.46943 13.19811 37939 ft 499 kts 17°
2026-05-07 15:07 40.52987 13.24289 37924 ft 503 kts 18°
2026-05-07 15:07 40.59083 13.28813 37915 ft 501 kts 17°
2026-05-07 15:08 40.65045 13.33277 37912 ft 494 kts 18°
2026-05-07 15:08 40.71056 13.37762 37916 ft 495 kts 17°
2026-05-07 15:09 40.77037 13.42217 37920 ft 498 kts 18°
2026-05-07 15:09 40.83038 13.46716 37920 ft 495 kts 17°
2026-05-07 15:10 40.89029 13.51214 37916 ft 495 kts 18°
2026-05-07 15:10 40.95025 13.55720 37914 ft 499 kts 18°
2026-05-07 15:11 41.00957 13.60207 37918 ft 490 kts 19°
2026-05-07 15:11 41.06887 13.64701 37907 ft 494 kts 18°
2026-05-07 15:12 41.12862 13.69210 37914 ft 493 kts 19°
2026-05-07 15:12 41.18794 13.73713 37917 ft 488 kts 19°
2026-05-07 15:13 41.24705 13.78206 37928 ft 493 kts 18°
2026-05-07 15:13 41.30606 13.82710 37933 ft 488 kts 19°
2026-05-07 15:14 41.36501 13.87209 37941 ft 492 kts 19°
2026-05-07 15:14 41.42441 13.91743 37960 ft 494 kts 19°
2026-05-07 15:15 41.48342 13.96283 37979 ft 488 kts 19°
2026-05-07 15:15 41.54242 14.00817 37998 ft 487 kts 19°
2026-05-07 15:16 41.60107 14.05328 38013 ft 492 kts 19°
2026-05-07 15:16 41.66042 14.09896 38012 ft 491 kts 19°
2026-05-07 15:17 41.71932 14.14456 38020 ft 486 kts 20°
2026-05-07 15:17 41.77708 14.18954 38041 ft 481 kts 19°
2026-05-07 15:18 41.83500 14.23450 38021 ft 485 kts 19°
2026-05-07 15:18 41.89364 14.27996 38027 ft 491 kts 19°
2026-05-07 15:19 41.95204 14.32555 38019 ft 484 kts 19°
2026-05-07 15:19 42.01020 14.37113 38018 ft 483 kts 19°
2026-05-07 15:20 42.06790 14.41638 38010 ft 483 kts 19°
2026-05-07 15:20 42.12616 14.46203 37983 ft 485 kts 20°
2026-05-07 15:21 42.18422 14.50758 37975 ft 483 kts 20°
2026-05-07 15:21 42.24222 14.55331 37976 ft 482 kts 20°
2026-05-07 15:22 42.29990 14.59886 37968 ft 480 kts 21°
2026-05-07 15:22 42.35726 14.64432 37973 ft 479 kts 21°
2026-05-07 15:23 42.41492 14.69004 37975 ft 482 kts 22°
2026-05-07 15:23 42.47245 14.73576 37966 ft 478 kts 22°
2026-05-07 15:24 42.52984 14.78154 37971 ft 480 kts 22°
2026-05-07 15:24 42.58669 14.82695 37968 ft 477 kts 22°
2026-05-07 15:25 42.64375 14.87262 37969 ft 475 kts 23°
2026-05-07 15:25 42.70084 14.91836 37971 ft 478 kts 23°
2026-05-07 15:26 42.75776 14.96413 37966 ft 475 kts 23°
2026-05-07 15:26 42.81444 15.00979 37965 ft 475 kts 24°
2026-05-07 15:27 42.87096 15.05540 37964 ft 473 kts 24°
2026-05-07 15:27 42.92775 15.10131 37978 ft 475 kts 24°
2026-05-07 15:28 42.98398 15.14688 37973 ft 471 kts 25°
2026-05-07 15:28 43.04019 15.19255 37979 ft 472 kts 25°
2026-05-07 15:29 43.09728 15.23648 37985 ft 467 kts 21°
2026-05-07 15:29 43.15552 15.27552 37986 ft 466 kts 19°
2026-05-07 15:30 43.21365 15.31347 37986 ft 465 kts 19°
2026-05-07 15:30 43.27205 15.35212 37990 ft 466 kts 20°
2026-05-07 15:31 43.33025 15.39122 37997 ft 467 kts 20°
2026-05-07 15:31 43.38797 15.43035 37993 ft 466 kts 20°
2026-05-07 15:32 43.44613 15.46997 37996 ft 467 kts 20°
2026-05-07 15:32 43.50431 15.50977 38003 ft 466 kts 20°
2026-05-07 15:33 43.56200 15.54932 38008 ft 465 kts 20°
2026-05-07 15:33 43.61970 15.58896 38017 ft 465 kts 20°
2026-05-07 15:34 43.67745 15.62872 38012 ft 464 kts 20°
2026-05-07 15:34 43.73518 15.66852 38016 ft 465 kts 21°
2026-05-07 15:35 43.79332 15.70872 38023 ft 465 kts 21°
2026-05-07 15:35 43.85104 15.74870 38022 ft 466 kts 22°
2026-05-07 15:36 43.90926 15.78910 38027 ft 469 kts 21°
2026-05-07 15:36 43.96711 15.82937 38027 ft 467 kts 21°
2026-05-07 15:37 44.02538 15.86997 38229 ft 470 kts 22°
2026-05-07 15:37 44.05454 15.89036 38603 ft 467 kts 22°
2026-05-07 15:37 44.08318 15.91042 38915 ft 464 kts 22°
2026-05-07 15:38 44.11201 15.93063 39019 ft 466 kts 22°
2026-05-07 15:38 44.14110 15.95101 39019 ft 468 kts 22°
2026-05-07 15:38 44.19896 15.99161 39015 ft 466 kts 22°
2026-05-07 15:39 44.25672 16.03225 39015 ft 467 kts 22°
2026-05-07 15:39 44.31499 16.07333 39017 ft 467 kts 22°
2026-05-07 15:40 44.37256 16.11402 39004 ft 466 kts 22°
2026-05-07 15:40 44.43069 16.15519 39017 ft 468 kts 22°
2026-05-07 15:41 44.48882 16.19644 39015 ft 468 kts 22°
2026-05-07 15:41 44.54667 16.23760 39021 ft 468 kts 22°
2026-05-07 15:42 44.60461 16.27893 39007 ft 468 kts 22°
2026-05-07 15:42 44.66226 16.32012 39004 ft 468 kts 22°
2026-05-07 15:43 44.72023 16.36163 39000 ft 468 kts 22°
2026-05-07 15:43 44.77841 16.40339 39003 ft 469 kts 22°
2026-05-07 15:44 44.83669 16.44530 39002 ft 473 kts 22°
2026-05-07 15:44 44.89524 16.48746 38993 ft 480 kts 22°
2026-05-07 15:45 44.95512 16.53068 38977 ft 487 kts 22°
2026-05-07 15:45 45.01586 16.57468 38977 ft 492 kts 22°
2026-05-07 15:46 45.10670 16.64076 38966 ft 491 kts 23°
2026-05-07 15:47 45.16738 16.68504 38975 ft 491 kts 23°
2026-05-07 15:47 45.22788 16.72926 38976 ft 492 kts 24°
2026-05-07 15:48 45.28845 16.77363 38968 ft 491 kts 24°
2026-05-07 15:48 45.34932 16.81831 38977 ft 491 kts 24°
2026-05-07 15:49 45.40961 16.86269 38955 ft 490 kts 24°
2026-05-07 15:49 45.47025 16.90741 38977 ft 492 kts 24°
2026-05-07 15:50 45.53134 16.95259 38962 ft 493 kts 24°
2026-05-07 15:50 45.59193 16.99749 38970 ft 494 kts 24°
2026-05-07 15:51 45.65295 17.04285 38977 ft 494 kts 24°
2026-05-07 15:51 45.71367 17.08809 38980 ft 494 kts 24°
2026-05-07 15:52 45.77445 17.13346 38975 ft 494 kts 24°
2026-05-07 15:52 45.83526 17.17899 38971 ft 495 kts 24°
2026-05-07 15:53 45.89633 17.22484 38983 ft 495 kts 24°
2026-05-07 15:53 45.95715 17.27062 38973 ft 494 kts 24°
2026-05-07 15:54 46.01707 17.31934 38987 ft 497 kts 29°
2026-05-07 15:54 46.07450 17.37429 38985 ft 498 kts 31°
2026-05-07 15:55 46.13087 17.43074 38983 ft 497 kts 32°
2026-05-07 15:55 46.18742 17.48749 38977 ft 497 kts 32°
2026-05-07 15:56 46.24411 17.54404 38962 ft 497 kts 32°
2026-05-07 15:56 46.30119 17.60076 38979 ft 498 kts 31°
2026-05-07 15:57 46.35842 17.65758 38983 ft 498 kts 32°
2026-05-07 15:57 46.41533 17.71413 38978 ft 497 kts 32°
2026-05-07 15:58 46.47203 17.77058 38974 ft 499 kts 32°
2026-05-07 15:58 46.52926 17.82771 38963 ft 498 kts 32°
2026-05-07 15:59 46.58606 17.88459 38967 ft 498 kts 32°
2026-05-07 15:59 46.64301 17.94177 38969 ft 498 kts 32°
2026-05-07 16:00 46.70002 17.99913 38968 ft 499 kts 33°
2026-05-07 16:00 46.75676 18.05641 38975 ft 498 kts 33°
2026-05-07 16:01 46.81364 18.11399 38975 ft 498 kts 33°
2026-05-07 16:01 46.87004 18.17120 38976 ft 498 kts 33°
2026-05-07 16:02 46.92689 18.22902 38998 ft 499 kts 33°
2026-05-07 16:02 46.98344 18.28668 39005 ft 498 kts 33°
2026-05-07 16:03 47.04019 18.34469 38964 ft 497 kts 33°
2026-05-07 16:03 47.09669 18.40261 38969 ft 498 kts 33°
2026-05-07 16:04 47.15345 18.46096 38967 ft 500 kts 33°
2026-05-07 16:04 47.21022 18.51946 38975 ft 498 kts 33°
2026-05-07 16:05 47.26679 18.57792 38988 ft 499 kts 33°
2026-05-07 16:05 47.32350 18.63667 38964 ft 497 kts 33°
2026-05-07 16:06 47.37979 18.69513 38945 ft 498 kts 34°
2026-05-07 16:06 47.43625 18.75394 38971 ft 497 kts 34°
2026-05-07 16:07 47.49253 18.81271 38987 ft 497 kts 34°
2026-05-07 16:07 47.54874 18.87157 38986 ft 497 kts 34°
2026-05-07 16:08 47.60479 18.93042 38983 ft 495 kts 34°
2026-05-07 16:08 47.66103 18.98959 38969 ft 495 kts 34°
2026-05-07 16:09 47.71695 19.04861 38977 ft 497 kts 34°
2026-05-07 16:09 47.77309 19.10803 38968 ft 497 kts 34°
2026-05-07 16:10 47.82931 19.16768 38960 ft 497 kts 34°
2026-05-07 16:10 47.88555 19.22755 38961 ft 498 kts 34°
2026-05-07 16:11 47.94167 19.28744 38963 ft 497 kts 34°
2026-05-07 16:11 47.99788 19.34758 38969 ft 497 kts 34°
2026-05-07 16:12 48.05368 19.40745 38976 ft 496 kts 34°
2026-05-07 16:12 48.10966 19.46767 38966 ft 496 kts 34°
2026-05-07 16:13 48.16544 19.52782 38951 ft 496 kts 34°
2026-05-07 16:13 48.22237 19.58557 38955 ft 496 kts 28°
2026-05-07 16:14 48.28473 19.62927 38959 ft 494 kts 18°
2026-05-07 16:14 48.34947 19.66250 38964 ft 494 kts 15°
2026-05-07 16:15 48.41491 19.69326 38965 ft 494 kts 15°
2026-05-07 16:15 48.48014 19.72449 38975 ft 494 kts 16°
2026-05-07 16:16 48.54542 19.75670 38970 ft 494 kts 16°
2026-05-07 16:16 48.61038 19.78933 38968 ft 493 kts 17°
2026-05-07 16:17 48.67528 19.82221 38974 ft 493 kts 17°
2026-05-07 16:17 48.74051 19.85541 38968 ft 494 kts 17°
2026-05-07 16:18 48.80537 19.88853 38977 ft 495 kts 17°
2026-05-07 16:18 48.87024 19.92172 38977 ft 495 kts 17°
2026-05-07 16:19 48.93540 19.95511 38973 ft 495 kts 17°
2026-05-07 16:19 49.00024 19.98846 38989 ft 495 kts 17°
2026-05-07 16:20 49.06545 20.02209 38987 ft 494 kts 17°
2026-05-07 16:20 49.13008 20.05552 38991 ft 493 kts 17°
2026-05-07 16:21 49.19493 20.08915 38984 ft 495 kts 17°
2026-05-07 16:21 49.25986 20.12291 38978 ft 494 kts 17°
2026-05-07 16:22 49.32502 20.15687 38973 ft 494 kts 17°
2026-05-07 16:22 49.39003 20.19086 38936 ft 494 kts 17°
2026-05-07 16:23 49.45517 20.22501 38956 ft 495 kts 17°
2026-05-07 16:23 49.52040 20.25674 38956 ft 494 kts 12°
2026-05-07 16:24 49.58754 20.27961 38956 ft 493 kts
2026-05-07 16:24 49.65438 20.29989 38950 ft 493 kts
2026-05-07 16:25 49.72131 20.32103 38950 ft 493 kts
2026-05-07 16:25 49.78822 20.34336 38944 ft 494 kts 10°
2026-05-07 16:26 49.85520 20.36640 38939 ft 494 kts 10°
2026-05-07 16:26 49.92243 20.38983 38939 ft 494 kts 10°
2026-05-07 16:27 49.98801 20.41282 38613 ft 481 kts 11°
2026-05-07 16:27 50.02108 20.42441 37486 ft 495 kts 10°
2026-05-07 16:27 50.05463 20.43614 36484 ft 498 kts 10°
2026-05-07 16:27 50.08786 20.44780 35757 ft 493 kts 10°
2026-05-07 16:28 50.12090 20.45943 35136 ft 488 kts 10°
2026-05-07 16:28 50.15373 20.47100 34424 ft 490 kts 10°
2026-05-07 16:28 50.18713 20.48279 33778 ft 487 kts 11°
2026-05-07 16:28 50.21969 20.49431 33259 ft 483 kts 11°
2026-05-07 16:29 50.25235 20.50588 32750 ft 478 kts 11°
2026-05-07 16:29 50.28451 20.51731 32247 ft 473 kts 11°
2026-05-07 16:29 50.31634 20.52863 31749 ft 469 kts 11°
2026-05-07 16:29 50.34787 20.53986 31256 ft 464 kts 11°
2026-05-07 16:30 50.37907 20.55096 30763 ft 460 kts 11°
2026-05-07 16:30 50.40998 20.56196 30263 ft 456 kts 11°
2026-05-07 16:30 50.44024 20.57275 29785 ft 451 kts 11°
2026-05-07 16:30 50.47067 20.58360 29291 ft 447 kts 11°
2026-05-07 16:31 50.50096 20.59443 28805 ft 443 kts 11°
2026-05-07 16:31 50.53077 20.60509 28317 ft 440 kts 11°
2026-05-07 16:31 50.56056 20.61576 27832 ft 436 kts 11°
2026-05-07 16:31 50.58986 20.62628 27346 ft 432 kts 11°
2026-05-07 16:32 50.61876 20.63666 26868 ft 428 kts 11°
2026-05-07 16:32 50.64767 20.64707 26387 ft 425 kts 11°
2026-05-07 16:32 50.67647 20.65744 25911 ft 421 kts 12°
2026-05-07 16:32 50.70468 20.66761 25438 ft 418 kts 12°
2026-05-07 16:33 50.73269 20.67772 24961 ft 414 kts 12°
2026-05-07 16:33 50.76063 20.68783 24483 ft 411 kts 12°
2026-05-07 16:33 50.78831 20.69785 24012 ft 408 kts 12°
2026-05-07 16:33 50.81591 20.70786 23545 ft 404 kts 13°
2026-05-07 16:34 50.84291 20.71767 23088 ft 401 kts 12°
2026-05-07 16:34 50.86993 20.72749 22623 ft 398 kts 13°
2026-05-07 16:34 50.89708 20.73737 22156 ft 395 kts 13°
2026-05-07 16:34 50.92377 20.74709 21698 ft 392 kts 13°
2026-05-07 16:35 50.95000 20.75665 21240 ft 389 kts 13°
2026-05-07 16:35 50.97636 20.76628 20785 ft 386 kts 13°
2026-05-07 16:35 51.00236 20.77578 20328 ft 383 kts 12°
2026-05-07 16:35 51.02824 20.78526 19878 ft 381 kts 12°
2026-05-07 16:36 51.05367 20.79459 19427 ft 378 kts 12°
2026-05-07 16:36 51.07927 20.80398 18979 ft 375 kts 12°
2026-05-07 16:36 51.10418 20.81314 18539 ft 371 kts 12°
2026-05-07 16:36 51.12949 20.82245 18099 ft 368 kts 12°
2026-05-07 16:37 51.15406 20.83150 17666 ft 365 kts 12°
2026-05-07 16:37 51.17871 20.84058 17231 ft 362 kts 12°
2026-05-07 16:37 51.20312 20.84958 16784 ft 358 kts 12°
2026-05-07 16:37 51.22714 20.85846 16356 ft 354 kts 12°
2026-05-07 16:38 51.25073 20.86718 15934 ft 350 kts 12°
2026-05-07 16:38 51.27441 20.87596 15506 ft 346 kts 12°
2026-05-07 16:38 51.29751 20.88451 15086 ft 342 kts 12°
2026-05-07 16:38 51.32053 20.89304 14663 ft 338 kts 12°
2026-05-07 16:39 51.34334 20.90152 14265 ft 335 kts 12°
2026-05-07 16:39 51.36571 20.90983 13855 ft 332 kts 11°
2026-05-07 16:39 51.38803 20.91812 13457 ft 329 kts 11°
2026-05-07 16:39 51.41018 20.92636 13060 ft 326 kts 11°
2026-05-07 16:40 51.43236 20.93462 12661 ft 324 kts 11°
2026-05-07 16:40 51.45415 20.94275 12262 ft 321 kts 11°
2026-05-07 16:40 51.47570 20.95080 11866 ft 319 kts 11°
2026-05-07 16:40 51.49730 20.95888 11455 ft 317 kts 11°
2026-05-07 16:41 51.51870 20.96689 11048 ft 314 kts 11°
2026-05-07 16:41 51.53981 20.97480 10683 ft 311 kts 11°
2026-05-07 16:41 51.56063 20.98260 10290 ft 309 kts 11°
2026-05-07 16:41 51.58153 20.99044 9915 ft 307 kts 11°
2026-05-07 16:42 51.60197 20.99813 9705 ft 299 kts 11°
2026-05-07 16:42 51.62202 21.00567 9338 ft 296 kts 11°
2026-05-07 16:42 51.64184 21.01313 9117 ft 288 kts 11°
2026-05-07 16:42 51.66117 21.02042 8881 ft 282 kts 11°
2026-05-07 16:43 51.67984 21.02746 8617 ft 277 kts 11°
2026-05-07 16:43 51.69875 21.03458 8296 ft 275 kts 11°
2026-05-07 16:43 51.71715 21.04152 8036 ft 270 kts 11°
2026-05-07 16:43 51.73528 21.04837 7755 ft 267 kts 10°
2026-05-07 16:44 51.75319 21.05514 7425 ft 265 kts 10°
2026-05-07 16:44 51.77124 21.06197 7094 ft 264 kts 10°
2026-05-07 16:44 51.78897 21.06868 6767 ft 262 kts 10°
2026-05-07 16:44 51.80674 21.07542 6441 ft 260 kts 10°
2026-05-07 16:45 51.82419 21.08204 6122 ft 259 kts 10°
2026-05-07 16:45 51.84154 21.08863 5803 ft 257 kts 10°
2026-05-07 16:45 51.85888 21.09521 5486 ft 255 kts 11°
2026-05-07 16:45 51.87587 21.10167 5289 ft 249 kts 11°
2026-05-07 16:46 51.89254 21.10801 5070 ft 237 kts 11°
2026-05-07 16:46 51.90814 21.11393 4894 ft 224 kts 11°
2026-05-07 16:46 51.92299 21.11951 4705 ft 216 kts 11°
2026-05-07 16:46 51.93770 21.12503 4431 ft 216 kts 11°
2026-05-07 16:47 51.95218 21.13051 4196 ft 212 kts 11°
2026-05-07 16:47 51.96644 21.13380 4009 ft 206 kts 353°
2026-05-07 16:47 51.97992 21.12752 3829 ft 204 kts 333°
2026-05-07 16:47 51.99233 21.11717 3676 ft 192 kts 332°
2026-05-07 16:48 52.00399 21.10723 3456 ft 188 kts 332°
2026-05-07 16:48 52.01534 21.09751 3264 ft 185 kts 332°
2026-05-07 16:48 52.02651 21.08786 3094 ft 180 kts 332°
2026-05-07 16:48 52.03765 21.07823 2992 ft 181 kts 332°
2026-05-07 16:49 52.04874 21.06864 2726 ft 178 kts 332°
2026-05-07 16:49 52.05915 21.05963 2485 ft 163 kts 332°
2026-05-07 16:49 52.06883 21.05123 2307 ft 156 kts 333°
2026-05-07 16:49 52.07812 21.04319 2074 ft 148 kts 333°
2026-05-07 16:50 52.08716 21.03535 1870 ft 148 kts 333°
2026-05-07 16:50 52.09629 21.02746 1665 ft 147 kts 333°
2026-05-07 16:50 52.09667 21.02713 1656 ft 147 kts 333°